Location: Baia Mare
(47.6567°N, 23.5850°E)
Time: 07:18:44
(UTC+03:00)

ISS - Pass Details

Date: 19 July 2018
Orbit: 402 x 408 km, 51.6° (Epoch: 23 July)

Event Time Altitude Azimuth Distance (km) Brightness Sun altitude
Exits shadow 00:58:04 25° 273° (W) 862 -2.1 -21.0°
Maximum altitude 00:59:44 57° 343° (NNW) 485 -3.2 -21.1°
Drops below altitude 10° 01:02:59 10° 64° (ENE) 1,471 -0.8 -21.1°
Sets 01:05:06 0° 68° (ENE) 2,334 0.2 -21.2°
